Вернуться в каталог

FENGYUN 1C DEB

АктивенPO
NORAD 30893·DEBRIS·🇨🇳 China

Запущен May 10, 1999 с Taiyuan Satellite Launch Center

Loading…

Ближайшие Пролёты (ближайшие 24 часа)

TLE

УстаревающийSource: Space-Track

Эпоха: Sep 3, 2026, 06:41 UTC

1 30893U 99025AYF 26246.27849876  .00000697  00000-0  36792-3 0  9991
2 30893  98.2441 250.7818 0308324  71.3749 304.4290 13.94751674985725

Отслеживайте FENGYUN 1C DEB в реальном времени с AllMySat

Download on the App Store